Weather reports worldwide

Advertisment
Aurillac, France (7549): temperature & dewpoint: 24.09.2020 23:00:00 - 30.09.2020 23:00:00 (CEST)Aurillac, France (7549): temperature 5cm: 24.09.2020 23:00:00 - 30.09.2020 23:00:00 (CEST)Aurillac, France (7549): temperature -20cm & temperature -100cm: 24.09.2020 23:00:00 - 30.09.2020 23:00:00 (CEST)Aurillac, France (7549): wind speed & gusts: 24.09.2020 23:00:00 - 30.09.2020 23:00:00 (CEST)Aurillac, France (7549): wind direction: 24.09.2020 23:00:00 - 30.09.2020 23:00:00 (CEST)Aurillac, France (7549): reduced air pressure: 24.09.2020 23:00:00 - 30.09.2020 23:00:00 (CEST)Aurillac, France (7549): visibility: 24.09.2020 23:00:00 - 30.09.2020 23:00:00 (CEST)Aurillac, France (7549): sunshine duration: 24.09.2020 23:00:00 - 30.09.2020 23:00:00 (CEST)Aurillac, France (7549): precipitation: 24.09.2020 23:00:00 - 30.09.2020 23:00:00 (CEST)
Date & Time tt [°C] td [°C] tt 5cm [°C] tt -20cm [°C] tt -100cm [°C] ff [km/h] ff [kn] fx [km/h] fx [kn] dd ppp [hPa] vv [km] sd [min] rr [mm]
30.09.2020 23:00:00 9,4 8,0 7,9 12,9 15,7 14 7 25 14 E 1013,9 52 0 0,0
30.09.2020 22:00:00 9,6 8,0 6,9 12,8 15,7 14 8 22 12 E 1013,9 48 0 0,0
30.09.2020 21:00:00 9,7 8,5 6,4 12,7 15,7 6 3 10 6 E 1014,3 18 0 0,0
30.09.2020 20:00:00 12,1 7,8 7,7 12,5 15,7 4 2 10 5 SE 1013,6 37 7 0,0
30.09.2020 19:00:00 15,4 8,6 15,0 12,4 15,7 6 3 14 8 SSW 1012,8 60 60 0,0
30.09.2020 18:00:00 17,1 8,8 20,2 12,2 15,7 8 4 17 9 SSW 1012,6 58 60 0,0
30.09.2020 17:00:00 18,1 9,2 19,5 12,0 15,7 7 4 17 9 WSW 1012,5 49 57 0,0
30.09.2020 16:00:00 17,0 8,9 20,1 11,9 15,7 9 5 20 11 SW 1013,1 52 55 0,0
30.09.2020 15:00:00 17,5 9,9 22,9 11,8 15,7 9 5 21 11 SW 1013,4 20 60 0,0
30.09.2020 14:00:00 16,8 9,0 22,9 11,7 15,8 8 4 16 9 SSW 1014,3 52 60 0,0
30.09.2020 13:00:00 15,7 10,0 18,2 11,7 15,8 4 2 14 8 ESE 1015,0 19 58 0,0
30.09.2020 12:00:00 13,3 8,8 14,9 11,7 15,8 5 3 16 9 W 1016,3 60 46 0,0
30.09.2020 11:00:00 13,0 9,6 12,8 11,8 15,8 3 2 11 6 ESE 1016,7 19 60 0,0
30.09.2020 10:00:00 9,1 7,4 6,6 11,9 15,8 6 3 13 7 E 1017,8 6 60 0,0
30.09.2020 09:00:00 5,7 5,1 0,2 11,9 15,8 9 5 14 8 E 1018,8 20 51 0,0
30.09.2020 08:00:00 3,0 2,7 -0,5 12,0 15,9 6 4 10 5 E 1019,6 19 0 0,0
30.09.2020 07:00:00 3,2 2,9 -0,1 12,1 15,9 8 4 11 6 ESE 1019,4 20 0 0,0
30.09.2020 06:00:00 3,9 3,6 0,7 12,1 15,9 7 4 14 8 ESE 1019,2 20 0 0,0
30.09.2020 05:00:00 4,7 4,4 2,1 12,2 15,9 9 5 16 9 E 1019,3 58 0 0,2
30.09.2020 04:00:00 5,8 5,7 1,9 12,2 15,9 11 6 17 9 E 1019,5 9 0 0,0
30.09.2020 03:00:00 5,2 4,9 1,2 12,3 15,9 7 4 11 6 E 1020,1 0,2 0 0,0
30.09.2020 02:00:00 6,6 6,3 1,7 12,2 15,9 6 4 8 5 ESE 1019,8 17 0 0,0
30.09.2020 01:00:00 7,8 7,4 2,9 12,2 16,0 3 2 8 4 E 1019,7 13 0 0,0
30.09.2020 00:00:00 8,1 7,3 6,3 12,2 16,0 3 2 15 8 SSW 1019,8 19 0 0,0
29.09.2020 23:00:00 7,8 7,4 5,6 12,2 16,0 9 5 14 8 E 1019,8 18 0 0,0
29.09.2020 22:00:00 8,6 8,0 4,5 12,1 16,0 4 2 8 4 ESE 1020,2 28 0 0,0
29.09.2020 21:00:00 9,2 8,1 4,5 12,0 16,0 4 2 8 4 ESE 1019,7 57 0 0,0
29.09.2020 20:00:00 10,7 8,3 6,3 11,8 16,0 2 1 6 3 SW 1019,2 47 10 0,0
29.09.2020 19:00:00 14,5 7,8 12,1 11,7 16,0 4 2 10 5 NW 1018,0 60 38 0,0
29.09.2020 18:00:00 15,7 8,0 16,6 11,6 16,0 5 3 13 7 NW 1017,4 60 37 0,0
29.09.2020 17:00:00 16,1 8,3 18,9 11,4 16,0 8 4 14 7 W 1017,8 58 52 0,0
29.09.2020 16:00:00 15,8 7,5 20,8 11,3 16,1 6 3 12 7 NNW 1018,2 60 60 0,0
29.09.2020 15:00:00 15,4 7,9 17,9 11,3 16,1 3 2 10 5 E 1018,9 59 34 0,0
29.09.2020 14:00:00 13,9 6,7 16,2 11,2 16,1 4 2 10 6 SE 1019,9 60 8 0,0
29.09.2020 13:00:00 13,0 6,6 15,6 11,2 16,1 3 2 11 6 W 1020,3 58 20 0,0
29.09.2020 12:00:00 11,6 6,5 15,4 11,3 16,1 6 3 16 9 W 1020,6 60 60 0,0
29.09.2020 11:00:00 8,4 6,7 11,5 11,3 16,1 5 3 10 5 WNW 1021,6 58 60 0,0
29.09.2020 10:00:00 6,6 6,5 3,5 11,4 16,2 3 1 9 5 N 1022,2 20 60 0,0
29.09.2020 09:00:00 2,0 1,9 -1,4 11,5 16,2 3 2 9 5 E 1023,7 17 53 0,0
29.09.2020 08:00:00 0,9 0,8 -2,0 11,6 16,2 6 3 8 5 SE 1023,6 0,9 0 0,0
29.09.2020 07:00:00 1,5 1,4 -2,1 11,6 16,2 5 3 7 4 ESE 1023,2 0,8 0 0,0
29.09.2020 06:00:00 1,3 1,2 -1,3 11,7 16,2 6 3 8 4 SE 1023,0 0,3 0 0,0
29.09.2020 05:00:00 1,6 1,5 -0,9 11,8 16,2 5 3 12 6 ESE 1022,7 0,3 0 0,0
29.09.2020 04:00:00 2,1 2,0 -0,7 11,8 16,2 6 4 10 5 E 1023,0 0,3 0 0,0
29.09.2020 03:00:00 2,5 2,4 0,2 11,8 16,2 6 3 10 5 E 1023,1 0,2 0 0,0
29.09.2020 02:00:00 3,0 2,7 0,5 11,9 16,3 6 3 10 5 E 1023,2 0,2 0 0,0
29.09.2020 01:00:00 3,9 3,6 0,1 11,9 16,3 5 3 8 5 ESE 1023,1 0,2 0 0,0
29.09.2020 00:00:00 4,7 4,3 0,2 11,9 16,3 4 2 7 4 ENE 1022,7 0,8 0 0,0
28.09.2020 23:00:00 6,1 5,7 0,7 11,9 16,3 2 1 7 4 W 1022,1 1,0 0 0,0
28.09.2020 22:00:00 6,6 5,9 1,9 11,9 16,3 5 3 8 4 WSW 1021,6 14 0 0,0
28.09.2020 21:00:00 7,7 6,3 2,6 11,8 16,3 5 3 8 4 W 1020,6 13 0 0,0
28.09.2020 20:00:00 9,3 5,5 4,7 11,7 16,2 4 2 21 11 WNW 1019,8 16 14 0,0
28.09.2020 19:00:00 12,1 5,9 12,2 11,7 16,4 10 5 23 12 WNW 1018,2 59 37 0,0
28.09.2020 18:00:00 11,5 8,4 11,9 11,7 16,4 5 3 11 6 NW 1017,8 60 3 0,0
28.09.2020 17:00:00 10,6 8,4 10,5 11,6 16,4 6 4 16 9 N 1018,0 51 0 0,0
28.09.2020 16:00:00 10,2 8,3 10,9 11,6 16,4 9 5 30 16 NW 1018,0 49 0 0,0
28.09.2020 15:00:00 9,6 8,0 9,4 11,6 16,4 17 9 35 19 NW 1018,0 20 0 0,0
28.09.2020 14:00:00 8,5 8,1 8,1 11,6 16,4 13 7 26 14 WNW 1018,2 17 0 0,2
28.09.2020 13:00:00 7,9 7,3 7,8 11,6 16,4 13 7 30 16 WNW 1018,0 9 0 0,8
28.09.2020 12:00:00 8,1 7,7 7,9 11,6 16,5 15 8 29 16 WNW 1017,3 5 0 1,1
28.09.2020 11:00:00 7,9 7,6 7,8 11,6 16,5 13 7 26 14 W 1016,6 2,8 0 1,4
28.09.2020 10:00:00 7,8 7,5 7,6 11,7 16,5 12 6 26 14 W 1015,9 2,8 0 1,0
28.09.2020 09:00:00 7,6 7,3 7,4 11,7 16,5 11 6 26 14 W 1015,6 1,7 0 1,8
28.09.2020 08:00:00 7,5 7,2 7,3 11,7 16,5 10 5 24 13 WNW 1014,8 2,6 0 1,6
28.09.2020 07:00:00 7,5 7,2 7,3 11,8 16,5 9 5 19 11 WNW 1014,6 1,8 0 1,2
28.09.2020 06:00:00 7,4 7,1 7,2 11,8 16,5 8 4 21 11 W 1014,3 2,2 0 1,4
28.09.2020 05:00:00 7,4 7,1 7,2 11,8 16,5 7 4 16 9 W 1014,3 2,1 0 1,8
28.09.2020 04:00:00 7,4 7,1 7,1 11,8 16,5 8 4 22 12 WNW 1014,4 7 0 1,4
28.09.2020 03:00:00 7,3 7,0 7,1 11,9 16,5 11 6 27 15 WNW 1014,6 8 0 1,5
28.09.2020 02:00:00 7,3 6,9 7,1 11,9 16,5 12 7 28 15 WNW 1014,4 10 0 0,8
28.09.2020 01:00:00 7,3 7,0 7,1 11,9 16,6 13 7 26 14 W 1014,4 6 0 1,0
28.09.2020 00:00:00 7,3 7,0 7,0 12,0 16,6 11 6 26 14 W 1014,2 4,2 0 1,0
27.09.2020 23:00:00 7,2 6,8 6,9 12,0 16,6 11 6 26 14 WNW 1014,3 3,1 0 1,2
27.09.2020 22:00:00 7,1 6,7 6,8 12,0 16,6 13 7 37 20 WNW 1014,1 15 0 0,4
27.09.2020 21:00:00 7,1 6,5 6,7 12,0 16,6 15 8 39 21 WNW 1013,4 5 0 0,2
27.09.2020 20:00:00 6,9 6,5 6,7 12,0 16,7 13 7 35 19 WNW 1012,9 10 0 0,8
27.09.2020 19:00:00 6,9 6,2 6,5 12,0 16,6 16 9 35 19 WNW 1012,6 3,5 0 0,6
27.09.2020 18:00:00 7,0 6,1 6,6 12,1 16,6 17 9 46 25 WNW 1012,2 8 0 0,4
27.09.2020 17:00:00 6,7 6,0 6,5 12,2 16,6 16 9 37 20 WNW 1012,3 11 0 1,2
27.09.2020 16:00:00 6,5 5,9 6,1 12,2 16,7 18 10 40 21 WNW 1012,4 4,6 0 0,6
27.09.2020 15:00:00 6,1 5,5 5,8 12,3 16,6 17 9 39 21 W 1012,4 7 0 0,8
27.09.2020 14:00:00 5,8 5,1 5,8 12,4 16,7 17 9 37 20 W 1012,5 10 0 1,0
27.09.2020 13:00:00 5,6 4,9 5,7 12,6 16,7 16 9 37 20 W 1012,9 13 0 1,6
27.09.2020 12:00:00 5,4 5,0 5,2 12,7 16,7 16 9 36 19 W 1013,2 10 0 1,7
27.09.2020 11:00:00 4,9 4,6 4,8 12,7 16,7 11 6 27 15 WNW 1013,7 7 0 1,4
27.09.2020 10:00:00 4,5 4,4 4,1 12,8 16,7 13 7 25 13 WNW 1013,4 5 0 2,0
27.09.2020 09:00:00 4,0 3,9 3,8 12,9 16,7 13 7 28 15 WNW 1013,4 7 0 1,0
27.09.2020 08:00:00 3,8 3,7 3,4 13,0 16,7 8 4 23 12 W 1013,2 7 0 0,6
27.09.2020 07:00:00 3,4 3,3 2,9 13,1 16,7 14 8 29 16 WNW 1013,7 9 0 0,0
27.09.2020 06:00:00 2,8 2,7 2,7 13,2 16,7 8 4 23 12 WNW 1013,3 0,4 0 0,0
27.09.2020 05:00:00 2,9 2,8 2,7 13,3 16,8 9 5 15 8 WNW 1013,8 0,3 0 0,0
27.09.2020 04:00:00 2,8 2,5 2,1 13,4 16,8 7 4 16 9 W 1013,7 0,2 0 0,0
27.09.2020 03:00:00 3,5 3,2 2,9 13,5 16,8 10 5 21 11 WNW 1013,5 0,7 0 0,0
27.09.2020 02:00:00 4,1 3,7 2,6 13,6 16,8 8 4 18 10 W 1013,1 7 0 0,0
27.09.2020 01:00:00 4,4 4,0 1,4 13,6 16,8 8 4 16 8 W 1012,7 38 0 0,0
27.09.2020 00:00:00 4,4 4,0 2,7 13,7 16,8 9 5 17 9 NW 1011,8 14 0 0,0
26.09.2020 23:00:00 4,7 3,5 2,9 13,7 16,8 6 3 29 16 WNW 1010,9 60 0 0,0
26.09.2020 22:00:00 5,9 5,5 5,3 13,7 16,8 9 5 19 10 NNW 1010,1 10 0 0,6
26.09.2020 21:00:00 5,8 5,4 5,0 13,8 16,8 6 3 14 8 NW 1009,8 20 0 0,0
26.09.2020 20:00:00 5,6 5,0 4,7 13,8 16,8 5 3 16 9 NW 1009,3 57 0 0,4
26.09.2020 19:00:00 6,3 5,4 6,0 13,8 16,8 8 5 20 11 W 1009,7 4,4 0 1,8
26.09.2020 18:00:00 7,0 5,3 6,5 13,8 16,8 11 6 27 14 W 1010,0 9 0 0,2
26.09.2020 17:00:00 7,8 4,9 7,2 13,8 16,8 15 8 34 18 W 1010,7 20 0 0,2
26.09.2020 16:00:00 9,7 3,6 10,3 13,8 16,8 19 10 38 21 WNW 1011,0 57 1 0,0
26.09.2020 15:00:00 8,5 5,8 7,4 13,9 16,9 10 5 42 23 NW 1012,3 46 6 0,0
26.09.2020 14:00:00 10,0 5,0 8,8 13,9 16,8 20 11 43 23 WNW 1012,3 60 8 0,0
26.09.2020 13:00:00 7,7 4,1 7,4 14,0 16,9 19 10 44 24 WNW 1014,0 51 2 0,0
26.09.2020 12:00:00 6,8 4,9 7,0 14,1 16,9 18 10 35 19 WNW 1015,0 59 0 0,0
26.09.2020 11:00:00 6,3 4,6 6,0 14,2 16,9 17 9 34 19 WNW 1015,5 59 0 0,0
26.09.2020 10:00:00 5,6 4,9 5,4 14,3 16,9 13 7 23 13 W 1015,8 19 0 0,0
26.09.2020 09:00:00 5,1 4,4 4,9 14,4 16,9 10 5 23 12 W 1016,1 17 0 0,0
26.09.2020 08:00:00 4,9 4,2 4,8 14,5 16,9 9 5 17 9 WNW 1016,5 3,0 0 0,0
26.09.2020 07:00:00 5,0 4,1 4,8 14,6 16,9 8 4 21 12 WNW 1016,7 50 0 0,0
26.09.2020 06:00:00 5,2 4,5 5,0 14,7 16,9 9 5 15 8 W 1016,7 58 0 0,0
26.09.2020 05:00:00 5,0 4,3 3,5 14,8 16,9 5 3 11 6 WNW 1016,8 56 0 0,0
26.09.2020 04:00:00 5,0 4,0 3,6 14,9 16,9 6 3 27 15 W 1017,0 60 0 0,0
26.09.2020 03:00:00 6,0 4,5 5,2 15,0 16,9 16 8 35 19 WNW 1017,0 54 0 0,0
26.09.2020 02:00:00 6,1 4,9 5,4 15,1 16,9 14 7 36 19 WNW 1016,8 48 0 0,0
26.09.2020 01:00:00 6,5 5,1 5,5 15,2 16,9 16 9 38 21 WNW 1016,3 60 0 0,0
26.09.2020 00:00:00 6,6 5,1 5,7 15,3 16,9 17 9 38 21 WNW 1016,3 60 0 0,0
25.09.2020 23:00:00 6,6 5,2 5,6 15,4 16,9 12 6 29 15 WNW 1015,9 60 0 0,0
25.09.2020 22:00:00 6,9 5,5 6,2 15,4 16,9 11 6 34 18 W 1015,2 60 0 0,0
25.09.2020 21:00:00 7,3 6,1 6,7 15,5 16,9 13 7 38 20 WNW 1014,2 16 0 0,4
25.09.2020 20:00:00 7,2 5,5 6,2 15,5 16,9 14 8 36 20 WNW 1013,4 60 8 0,0
25.09.2020 19:00:00 7,8 5,4 7,1 15,5 16,9 15 8 65 35 NW 1012,4 51 5 0,6
25.09.2020 18:00:00 9,7 6,0 9,7 15,5 16,9 23 12 54 29 W 1010,1 52 32 0,0
25.09.2020 17:00:00 10,5 7,0 8,2 15,5 16,9 21 11 50 27 WNW 1010,1 16 26 0,2
25.09.2020 16:00:00 9,5 6,4 8,6 15,6 16,9 21 11 45 24 W 1010,3 20 27 0,2
25.09.2020 15:00:00 10,5 7,4 9,9 15,7 16,9 20 11 44 24 W 1009,8 20 35 0,0
25.09.2020 14:00:00 8,7 7,0 8,1 15,8 16,9 18 10 42 23 W 1010,4 17 3 0,4
25.09.2020 13:00:00 7,9 6,0 8,0 15,9 16,9 14 7 35 19 W 1010,6 20 0 0,0
25.09.2020 12:00:00 7,9 6,2 7,1 16,1 16,9 13 7 39 21 W 1010,3 20 13 0,2
25.09.2020 11:00:00 6,8 5,7 6,5 16,2 16,9 17 9 40 22 W 1010,4 7 0 1,4
25.09.2020 10:00:00 6,9 5,7 6,7 16,3 16,9 13 7 36 19 W 1009,7 9 8 0,6
25.09.2020 09:00:00 6,9 5,8 6,0 16,4 17,0 14 7 53 28 W 1009,5 14 9 0,8
25.09.2020 08:00:00 7,1 5,7 6,2 16,6 17,0 9 5 28 15 WSW 1009,3 18 0 0,0
25.09.2020 07:00:00 7,4 6,0 6,5 16,7 17,0 10 5 26 14 W 1009,3 20 0 0,2
25.09.2020 06:00:00 7,6 6,5 6,7 16,8 16,9 11 6 24 13 WSW 1009,5 9 0 0,4
25.09.2020 05:00:00 7,6 6,2 6,6 16,9 17,0 14 8 51 27 W 1009,9 20 0 0,6
25.09.2020 04:00:00 8,5 7,0 7,6 17,1 17,0 15 8 31 17 WSW 1009,7 20 0 0,0
25.09.2020 03:00:00 8,4 7,2 7,6 17,1 16,9 7 4 16 9 WSW 1010,1 20 0 0,2
25.09.2020 02:00:00 8,5 7,1 7,7 17,2 17,0 9 5 26 14 WSW 1010,6 20 0 0,8
25.09.2020 01:00:00 8,9 7,2 8,2 17,3 17,0 12 6 47 25 WNW 1010,1 20 0 0,8
25.09.2020 00:00:00 11,0 9,7 10,3 17,3 17,0 19 10 40 22 W 1009,2 4,8 0 1,6
24.09.2020 23:00:00 12,1 10,0 10,8 17,4 17,0 17 9 36 19 W 1009,3 14 0 0,0

tt = temperature
td = dewpoint
tt 5cm = temperature 5cm
tt -20cm = temperature -20cm
tt -100cm = temperature -100cm
ff = wind speed
fx = gusts
dd = wind direction
ppp = reduced air pressure
vv = visibility
sd = sunshine duration
rr = precipitation

Next stations